Location: Benque
(43.2594°N, 0.9178°E)
Time: 15:07:07
(UTC+00:00)

BREEZE-M DEB (TANK) - Pass Details

Date: 24 January 2020
Orbit: 303 x 15443 km, 49.5° (Epoch: 23 February)

Event Time Altitude Azimuth Distance (km) Brightness Sun altitude
Rises 19:13:17 0° 284° (WNW) 14,811 10.7 -24.7°
Reaches altitude 10° 19:31:13 10° 289° (WNW) 10,511 9.6 -27.9°
Maximum altitude 19:58:13 76° 17° (NNE) 1,703 4.5 -32.8°
Enters shadow 19:59:01 71° 61° (ENE) 1,599 4.3 -33.0°
